Hourly Weather Otrubok

Today, 24 July, Saturday

Time Temperature Precipitation Wind Pressure Humidity
00:00 +18°C° 0 mm 3 mps 749 mmHg 64%
01:00 +18°C° 0 mm 3 mps 749 mmHg 65%
02:00 +17°C° 0 mm 3 mps 749 mmHg 67%
03:00 +17°C° 0 mm 3 mps 749 mmHg 68%
04:00 +17°C° 0 mm 3 mps 749 mmHg 69%
05:00 +17°C° 0 mm 3 mps 749 mmHg 69%
06:00 +19°C° 0 mm 3 mps 749 mmHg 63%
07:00 +22°C° 0 mm 3 mps 750 mmHg 57%
08:00 +25°C° 0 mm 3 mps 750 mmHg 50%
09:00 +26°C° 0 mm 3 mps 750 mmHg 46%
10:00 +27°C° 0 mm 3 mps 750 mmHg 42%
11:00 +28°C° 0 mm 3 mps 750 mmHg 38%
12:00 +29°C° 0 mm 3 mps 750 mmHg 36%
13:00 +29°C° 0 mm 3 mps 750 mmHg 34%
14:00 +30°C° 0 mm 3 mps 750 mmHg 33%
15:00 +29°C° 0 mm 3 mps 750 mmHg 35%
16:00 +29°C° 0 mm 4 mps 750 mmHg 37%
17:00 +28°C° 0 mm 4 mps 750 mmHg 39%
18:00 +27°C° 0 mm 4 mps 750 mmHg 44%
19:00 +25°C° 0 mm 3 mps 751 mmHg 48%
20:00 +22°C° 0 mm 3 mps 751 mmHg 53%
21:00 +22°C° 0 mm 3 mps 751 mmHg 54%
22:00 +21°C° 0 mm 3 mps 751 mmHg 56%
23:00 +21°C° 0 mm 3 mps 751 mmHg 57%

Tomorrow, 25 July, Sunday

Time Temperature Precipitation Wind Pressure Humidity
00:00 +20°C° 0 mm 3 mps 751 mmHg 58%
01:00 +20°C° 0 mm 3 mps 752 mmHg 59%
02:00 +20°C° 0 mm 3 mps 752 mmHg 60%
03:00 +19°C° 0 mm 2 mps 752 mmHg 62%
04:00 +19°C° 0 mm 2 mps 752 mmHg 65%
05:00 +19°C° 0 mm 2 mps 752 mmHg 67%
06:00 +21°C° 0 mm 2 mps 752 mmHg 61%
07:00 +24°C° 0 mm 2 mps 753 mmHg 56%
08:00 +26°C° 0 mm 2 mps 753 mmHg 50%
09:00 +27°C° 0 mm 2 mps 753 mmHg 46%
10:00 +28°C° 0 mm 2 mps 753 mmHg 41%
11:00 +30°C° 0 mm 3 mps 753 mmHg 37%
12:00 +30°C° 0 mm 3 mps 753 mmHg 36%
13:00 +30°C° 0 mm 3 mps 753 mmHg 34%
14:00 +31°C° 0 mm 3 mps 753 mmHg 33%
15:00 +30°C° 0 mm 3 mps 753 mmHg 36%
16:00 +29°C° 0 mm 3 mps 753 mmHg 39%
17:00 +29°C° 0 mm 3 mps 753 mmHg 41%
18:00 +27°C° 0 mm 3 mps 753 mmHg 45%
19:00 +26°C° 0 mm 3 mps 753 mmHg 49%
20:00 +24°C° 0 mm 3 mps 753 mmHg 53%
21:00 +24°C° 0 mm 3 mps 753 mmHg 55%
22:00 +24°C° 0 mm 3 mps 753 mmHg 57%
23:00 +22°C° 0 mm 3 mps 754 mmHg 59%

Day after tomorrow, 26 July, Monday

Time Temperature Precipitation Wind Pressure Humidity
00:00 +22°C° 0 mm 3 mps 754 mmHg 60%
01:00 +21°C° 0 mm 3 mps 754 mmHg 61%
02:00 +21°C° 0 mm 3 mps 754 mmHg 62%
03:00 +20°C° 0 mm 3 mps 754 mmHg 63%
04:00 +20°C° 0 mm 3 mps 754 mmHg 64%
05:00 +19°C° 0 mm 3 mps 754 mmHg 65%
06:00 +21°C° 0 mm 3 mps 754 mmHg 59%
07:00 +23°C° 0 mm 4 mps 754 mmHg 52%
08:00 +26°C° 0 mm 4 mps 755 mmHg 45%
09:00 +28°C° 0 mm 4 mps 755 mmHg 42%
10:00 +29°C° 0 mm 4 mps 755 mmHg 38%
11:00 +30°C° 0 mm 4 mps 755 mmHg 35%
12:00 +32°C° 0 mm 4 mps 754 mmHg 33%
13:00 +32°C° 0 mm 4 mps 754 mmHg 32%
14:00 +33°C° 0 mm 4 mps 754 mmHg 30%
15:00 +33°C° 0 mm 4 mps 754 mmHg 32%
16:00 +32°C° 0 mm 4 mps 754 mmHg 33%
17:00 +32°C° 0 mm 4 mps 753 mmHg 34%
18:00 +29°C° 0 mm 3 mps 754 mmHg 39%
19:00 +27°C° 0 mm 3 mps 754 mmHg 45%
20:00 +25°C° 0 mm 3 mps 754 mmHg 50%
21:00 +25°C° 0 mm 3 mps 754 mmHg 51%
22:00 +24°C° 0 mm 3 mps 754 mmHg 52%
23:00 +22°C° 0 mm 3 mps 754 mmHg 52%

27 July, Tuesday

Time Temperature Precipitation Wind Pressure Humidity
00:00 +22°C° 0 mm 3 mps 754 mmHg 54%
01:00 +21°C° 0 mm 3 mps 754 mmHg 55%
02:00 +20°C° 0 mm 3 mps 754 mmHg 57%
03:00 +20°C° 0 mm 3 mps 754 mmHg 58%
04:00 +20°C° 0 mm 3 mps 754 mmHg 59%
05:00 +20°C° 0 mm 3 mps 754 mmHg 59%
06:00 +22°C° 0 mm 4 mps 754 mmHg 54%
07:00 +25°C° 0 mm 4 mps 754 mmHg 48%
08:00 +27°C° 0 mm 4 mps 754 mmHg 42%
09:00 +28°C° 0 mm 4 mps 754 mmHg 39%
10:00 +30°C° 0 mm 4 mps 754 mmHg 36%
11:00 +32°C° 0 mm 4 mps 754 mmHg 33%
12:00 +33°C° 0 mm 3 mps 753 mmHg 33%
13:00 +33°C° 0 mm 3 mps 753 mmHg 32%
14:00 +34°C° 0 mm 2 mps 753 mmHg 32%
15:00 +32°C° 0 mm 2 mps 753 mmHg 32%
16:00 +32°C° 0 mm 2 mps 753 mmHg 32%
17:00 +32°C° 0 mm 1 mps 753 mmHg 33%
18:00 +30°C° 0 mm 2 mps 753 mmHg 39%
19:00 +28°C° 0 mm 2 mps 753 mmHg 46%
20:00 +26°C° 0 mm 3 mps 753 mmHg 52%
21:00 +25°C° 0 mm 2 mps 753 mmHg 55%
22:00 +25°C° 0 mm 1 mps 753 mmHg 57%
23:00 +25°C° 0 mm 1 mps 753 mmHg 60%

28 July, Wednesday

Time Temperature Precipitation Wind Pressure Humidity
00:00 +24°C° 0 mm 1 mps 753 mmHg 62%
01:00 +24°C° 0 mm 1 mps 753 mmHg 64%
02:00 +21°C° 0 mm 0 mps 752 mmHg 66%
03:00 +23°C° 0 mm 1 mps 752 mmHg 68%
04:00 +23°C° 0 mm 1 mps 752 mmHg 69%
05:00 +23°C° 0 mm 1 mps 752 mmHg 70%
06:00 +25°C° 0 mm 2 mps 752 mmHg 64%
07:00 +27°C° 0 mm 2 mps 752 mmHg 58%
08:00 +29°C° 0 mm 2 mps 752 mmHg 51%
09:00 +30°C° 0 mm 2 mps 752 mmHg 46%
10:00 +31°C° 0 mm 2 mps 752 mmHg 41%
11:00 +34°C° 0 mm 3 mps 752 mmHg 35%
12:00 +34°C° 0 mm 3 mps 751 mmHg 33%
13:00 +35°C° 0 mm 3 mps 751 mmHg 31%
14:00 +35°C° 0 mm 3 mps 751 mmHg 29%
15:00 +35°C° 0 mm 3 mps 750 mmHg 30%
16:00 +35°C° 0 mm 3 mps 750 mmHg 32%
17:00 +34°C° 0 mm 3 mps 750 mmHg 33%
18:00 +33°C° 0 mm 3 mps 750 mmHg 37%
19:00 +30°C° 0 mm 3 mps 750 mmHg 41%
20:00 +28°C° 0 mm 3 mps 750 mmHg 45%
21:00 +27°C° 0 mm 3 mps 750 mmHg 48%
22:00 +26°C° 0 mm 3 mps 749 mmHg 51%
23:00 +26°C° 0 mm 3 mps 749 mmHg 54%

29 July, Thursday

Time Temperature Precipitation Wind Pressure Humidity
00:00 +25°C° 0 mm 3 mps 749 mmHg 55%
01:00 +24°C° 0 mm 3 mps 749 mmHg 57%
02:00 +24°C° 0 mm 3 mps 749 mmHg 59%
03:00 +22°C° 0.1 mm 3 mps 749 mmHg 62%
04:00 +22°C° 0.1 mm 3 mps 749 mmHg 66%
05:00 +23°C° 0.1 mm 2 mps 749 mmHg 69%
06:00 +24°C° 0.1 mm 3 mps 749 mmHg 65%
07:00 +26°C° 0.1 mm 3 mps 749 mmHg 61%
08:00 +28°C° 0.1 mm 3 mps 749 mmHg 57%
09:00 +29°C° 0 mm 3 mps 748 mmHg 53%
10:00 +31°C° 0 mm 3 mps 748 mmHg 48%
11:00 +34°C° 0 mm 3 mps 748 mmHg 44%
12:00 +34°C° 0 mm 3 mps 748 mmHg 41%
13:00 +35°C° 0 mm 3 mps 748 mmHg 39%
14:00 +36°C° 0 mm 3 mps 747 mmHg 36%
15:00 +35°C° 0 mm 3 mps 747 mmHg 40%
16:00 +34°C° 0 mm 3 mps 747 mmHg 44%
17:00 +31°C° 0 mm 3 mps 747 mmHg 48%
18:00 +30°C° 0.2 mm 2 mps 747 mmHg 52%
19:00 +29°C° 0.2 mm 2 mps 747 mmHg 56%
20:00 +28°C° 0.2 mm 1 mps 747 mmHg 60%
21:00 +27°C° 0.2 mm 2 mps 747 mmHg 64%
22:00 +26°C° 0.2 mm 2 mps 747 mmHg 67%
23:00 +25°C° 0.2 mm 3 mps 747 mmHg 71%
Show more